Flag for Ireland Weather past 2 weeks in Limerick, Ireland

Now
59 °F

Broken clouds.


Feels Like: 57 °F
Forecast: 52 / 67 °F
Wind: 9 mph from Northwest

Location: Shannon Airport

Current Time: Jul 1, 2015 at 8:55:50 PM

Latest Report: Jul 1, 2015 at 8:30 PM


Visibility: N/A

Pressure: 29.80 "Hg

Humidity: 100%

Dew point: 59 °F

Location of LimerickLocation

Historic Weather in Limerick — Graph

°F

Limerick temperature yesterday

Maximum temperature yesterday: 72 °F (at 3:00 PM)
Minimum temperature yesterday: 57 °F (at 11:30 PM)
Average temperature yesterday: 65 °F

Past Weeks' High & Low Weather Summary

 TemperatureHumidityPressure
High72 °F (Jun 30, 3:00 PM)100% (Jun 17, 1:00 AM)30.33 "Hg (Jun 17, 1:00 AM)
Low48 °F (Jun 22, 5:00 AM)53% (Jun 23, 7:00 PM)29.77 "Hg (Jul 1, 2:30 PM)
Average59 °F81%30.05 "Hg
* Reported Jun 16 7:00 PM — Jul 1 7:30 PM, Limerick, Weather by CustomWeather, © 2015

Note: Actual official high and low records may vary slightly from our data, if they occured in-between our weather recording intervals... More about our weather records

Advertising

Limerick weather history for previous 24 hours

 ConditionsComfort  
Time TempWeatherWind HumidityBarometerVisibility
7:30 PM
Wed, Jul 1
63 °FBroken clouds.7 mph88%29.77 "HgN/A
7:00 PM63 °FSprinkles. Broken clouds.9 mph94%29.77 "Hg5 mi
6:30 PM64 °FSprinkles. Broken clouds.8 mph88%29.77 "HgN/A
6:00 PM63 °FSprinkles. Partly sunny.12 mph94%29.77 "HgN/A
5:30 PM68 °FSprinkles. Partly sunny.6 mph78%29.77 "HgN/A
5:00 PM70 °FPartly sunny.3 mph69%29.77 "HgN/A
4:30 PM70 °FBroken clouds.5 mph64%29.77 "HgN/A
4:00 PM68 °FBroken clouds.3 mph73%29.77 "HgN/A
3:30 PM66 °FBroken clouds.3 mph78%29.77 "HgN/A
3:00 PM66 °FSprinkles. Scattered clouds.5 mph73%29.77 "Hg4 mi
2:30 PM68 °FBroken clouds.2 mph69%29.77 "HgN/A
2:00 PM66 °FBroken clouds.2 mph73%29.80 "HgN/A
1:30 PM66 °FPartly sunny.3 mph73%29.80 "HgN/A
1:00 PM66 °FBroken clouds.5 mph78%29.80 "HgN/A
12:30 PM64 °FBroken clouds.3 mph83%29.80 "HgN/A
12:00 PM64 °FBroken clouds.2 mph78%29.80 "HgN/A
11:30 AM64 °FBroken clouds.1 mph78%29.80 "HgN/A
11:00 AM64 °FBroken clouds.2 mph78%29.80 "HgN/A
10:30 AM63 °FBroken clouds.3 mph83%29.80 "HgN/A
10:00 AM63 °FPartly sunny.3 mph83%29.80 "HgN/A
9:30 AM61 °FPartly sunny.3 mph88%29.80 "HgN/A
9:00 AM61 °FPartly sunny.2 mph88%29.80 "HgN/A
8:30 AM61 °FPartly sunny.5 mph88%29.80 "HgN/A
8:00 AM61 °FBroken clouds.3 mph88%29.80 "HgN/A
7:30 AM59 °FBroken clouds.3 mph94%29.80 "HgN/A
7:00 AM59 °FMostly cloudy.3 mph94%29.80 "HgN/A
6:30 AM59 °FPartly sunny.3 mph94%29.80 "HgN/A
6:00 AM59 °FPassing clouds.6 mph94%29.80 "HgN/A
5:30 AM59 °FOvercast.5 mph94%29.80 "HgN/A
5:00 AM59 °FPassing clouds.3 mph94%29.80 "HgN/A
4:30 AM59 °FPassing clouds.3 mph94%29.80 "HgN/A
4:00 AM57 °FPassing clouds.3 mph100%29.80 "HgN/A
3:30 AM57 °FPassing clouds.3 mph94%29.83 "HgN/A
3:00 AM57 °FPassing clouds.3 mph94%29.83 "HgN/A
2:30 AM57 °FPassing clouds.2 mph94%29.83 "HgN/A
2:00 AM57 °FPassing clouds.2 mph88%29.83 "HgN/A
1:30 AM57 °FPassing clouds.3 mph94%29.83 "HgN/A
1:00 AM55 °FPartly cloudy.3 mph100%29.83 "HgN/A
12:30 AM55 °FPassing clouds.3 mph100%29.86 "HgN/A
12:00 AM57 °FPassing clouds.3 mph94%29.86 "HgN/A
11:30 PM
Tue, Jun 30
57 °FPassing clouds.3 mph94%29.86 "HgN/A
11:00 PM59 °FPassing clouds.5 mph94%29.86 "HgN/A
10:30 PM61 °FPassing clouds.3 mph88%29.83 "HgN/A
10:00 PM63 °FPartly sunny.6 mph88%29.86 "HgN/A
9:30 PM64 °FPartly sunny.6 mph83%29.83 "HgN/A
9:00 PM66 °FBroken clouds.8 mph78%29.83 "HgN/A
8:30 PM68 °FPartly sunny.6 mph69%29.83 "HgN/A
8:00 PM70 °FBroken clouds.10 mph69%29.83 "HgN/A
Weather by CustomWeather, © 2015

See weather overviewHow to use our weather pages